User: anonymous   Login
Location: Ostrava
(49.8330°N, 18.2830°E)
Time: 20:23:43
(UTC+01:00)
Language:

Iridium 7 - Orbit

View from above orbital plane
View from above orbital plane
View from above satellite
View from above satellite

Ground track
Ground track

The orbit data is extracted from the following two-line orbital elements,

1 24793U 97020B   14355.52342977  .00000926  00000-0  32373-3 0  1024
2 24793 086.3967 338.7405 0002225 104.1673 040.7727 14.34218785922956
Epoch (UTC): 21 December 2014 12:33:44
Eccentricity: 0.0002225
inclination: 86.3967°
perigee height: 776 km
apogee height: 779 km
right ascension of ascending node: 338.7405°
argument of perigee: 104.1673°
revolutions per day: 14.34218785
mean anomaly at epoch: 40.7727°
orbit number at epoch: 92295

The dashed part of the orbit path shows where the satellite is in the earth's shadow,  

DLR